Погода в Кубенском

Россия / Вологодская область     59°26′02″N   39°40′13″E
темп.,
°C
ветер,
м/с
пор.,
м/с
влажн.,
%
обл.,
%
осадки,
мм/ч
давл.,
гПа
погр.,
м
27 октября, ср
ср2700:00+3юз4993100 0.0 1011347
03:00+2юз4993100 0.0 1010351
06:00+2ююз4994100 0.0 1008342
09:00+2ююз51192100 0.0 1006506
12:00+4юз51088100 0.0 1004673
15:00+2зюз51297100 0.6 1003749
18:00+5з61392100 0.2 1004815
21:00+5з61188100 0.4 1004840
28 октября, чт
чт2800:00+5з61290100 0.1 1005621
03:00+5зсз5983100 0.2 1006704
06:00+4з2693100 0.0 1007244
09:00+4зсз1395100 0.1 1008194
12:00+2ссв4798100 0.8 1011386
15:00+2ссв577910 0.9 1015731
18:00−1ссв49805 0.0 1021548
21:00−2св27795 0.0 1024431
29 октября, пт
пт2900:00−3всв2378100 0.0 1026261
03:00−2юв2476100 0.0 1027270
06:00−2ююв3772100 0.0 1028354
09:00−1ю51166100 0.0 1027475
12:000ююз71573100 0.2 1024580
15:00+2ююз71689100 1.9 1021773
18:00+5юз71589100 0.0 1019694
21:00+6зюз61494100 0.1 1019511
30 октября, сб
сб3000:00+6зюз61395100 0.0 1019504
03:00+6зюз51395100 0.0 1020406
06:00+6зюз51494100 0.0 1020377
09:00+6зюз5149547 0.0 1020401
12:00+8зюз61289100 0.0 1021559
15:00+9з61084100 0.0 1021611
18:00+7юз41091100 0.0 1021262
21:00+6юз4118626 0.0 1022303
31 октября, вс
вс3100:00+5юз4128783 0.0 1021297
03:00+5юз4118994 0.0 1021323
06:00+4юз5129070 0.0 1020356
09:00+5юз5139160 0.0 1019456
12:00+8юз5138542 0.0 1019562
15:00+8юз5118699 0.0 1019530
18:00+6юз4119294 0.0 1019352
21:00+6юз41192100 0.0 1019351